QPF
0.00 0.00 0.00 0.00 0.00 0.00 0.00 0.00 0.00 0.00 0.00 0.00 0.00 0.00 0.00 0.00 0.00 0.00 0.00 0.00 0.00 0.00 0.00 0.00 0.00 0.00 0.00 0.00 0.00 0.00 0.00 0.00 0.00 0.00 0.00 0.00 0.00 0.00 0.00 0.00 0.00 0.00 0.00
0.00 0.00 0.00 0.00 0.00 0.00 0.00 0.00 0.00 0.00 0.00 0.00 0.00 0.00 0.00 0.00 0.00 0.00 0.00 0.00 0.00 0.00 0.00 0.00 0.00 0.00 0.00 0.00 0.00 0.00 0.00 0.00 0.00 0.00 0.00 0.00 0.00 0.00 0.00 0.00 0.00 0.00 0.00
0.00 0.00 0.00 0.00 0.00 0.00 0.00 0.00 0.00 0.00 0.00 0.00 0.00 0.00 0.00 0.00 0.00 0.00 0.00 0.00 0.00 0.00 0.00 0.00 0.00 0.00 0.00 0.00 0.00 0.00 0.00 0.00 0.00 0.00 0.00 0.00 0.00 0.00 0.00 0.00 0.00 0.00 0.00
0.00 0.00 0.00 0.00 0.00 0.00 0.00 0.00 0.00 0.00 0.00 0.00 0.00 0.00 0.00 0.00 0.00 0.00 0.00 0.00 0.00 0.00 0.00 0.00 0.00 0.00 0.00 0.00 0.00 0.00 0.00 0.00 0.00 0.00 0.00 0.00 0.00 0.00 0.00 0.00 0.00 0.00 0.00
0.00 0.00 0.00 0.00 0.00 0.00 0.00 0.00 0.00 0.00 0.00 0.00 0.00 0.00 0.00 0.00 0.00 0.00 0.00 0.00 0.00 0.00 0.00 0.00 0.00 0.00 0.00 0.00 0.00 0.00 0.00 0.00 0.00 0.00 0.00 0.00 0.00 0.00 0.00 0.00 0.00 0.00 0.00
0.00 0.00 0.00 0.00 0.00 0.00 0.00 0.00 0.00 0.00 0.00 0.00 0.00 0.00 0.00 0.00 0.00 0.00 0.00 0.00 0.00 0.00 0.00 0.00 0.00 0.00 0.00 0.00 0.00 0.00 0.00 0.00 0.00 0.00 0.00 0.00 0.00 0.00 0.00 0.00 0.00 0.00 0.00
0.00 0.00 0.00 0.00 0.00 0.00 0.00 0.00 0.00 0.00 0.00 0.00 0.00 0.00 0.00 0.00 0.00 0.00 0.00 0.00 0.00 0.00 0.00 0.00 0.00 0.00 0.00 0.00 0.00 0.00 0.00 0.00 0.00 0.00 0.00 0.00 0.00 0.00 0.00 0.00 0.00 0.00 0.00
0.00 0.00 0.00 0.00 0.00 0.00 0.00 0.00 0.00 0.00 0.00 0.00 0.00 0.00 0.00 0.00 0.00 0.00 0.00 0.00 0.00 0.00 0.00 0.00 0.00 0.00 0.00 0.00 0.00 0.00 0.00 0.00 0.00 0.00 0.00 0.00 0.00 0.00 0.00 0.00 0.00 0.00 0.00
0.00 0.00 0.00 0.00 0.00 0.00 0.00 0.00 0.00 0.00 0.00 0.00 0.00 0.00 0.00 0.00 0.00 0.00 0.00 0.00 0.00 0.00 0.00 0.00 0.00 0.00 0.00 0.00 0.00 0.00 0.00 0.00 0.00 0.00 0.00 0.00 0.00 0.00 0.00 0.00 0.00 0.00 0.01
0.00 0.00 0.00 0.00 0.00 0.00 0.00 0.00 0.00 0.00 0.00 0.00 0.00 0.00 0.00 0.00 0.00 0.00 0.00 0.00 0.00 0.00 0.00 0.00 0.00 0.00 0.00 0.00 0.00 0.00 0.00 0.00 0.00 0.00 0.00 0.00 0.00 0.00 0.00 0.01 0.02 0.03 0.04
0.00 0.00 0.00 0.00 0.00 0.00 0.00 0.00 0.00 0.00 0.00 0.00 0.00 0.00 0.00 0.00 0.00 0.00 0.00 0.00 0.00 0.00 0.00 0.00 0.00 0.00 0.00 0.00 0.00 0.00 0.00 0.00 0.00 0.00 0.00 0.00 0.00 0.00 0.01 0.02 0.03 0.02 0.02
0.00 0.00 0.00 0.00 0.00 0.00 0.00 0.00 0.00 0.00 0.00 0.00 0.00 0.00 0.00 0.00 0.00 0.00 0.00 0.00 0.00 0.00 0.00 0.00 0.00 0.00 0.00 0.00 0.00 0.00 0.00 0.00 0.00 0.00 0.00 0.00 0.00 0.00 0.00 0.00 0.00 0.00 0.01
0.00 0.00 0.00 0.00 0.00 0.00 0.00 0.00 0.00 0.00 0.00 0.00 0.00 0.00 0.00 0.00 0.00 0.00 0.00 0.00 0.00 0.00 0.00 0.00 0.00 0.00 0.00 0.00 0.00 0.00 0.00 0.00 0.00 0.00 0.00 0.00 0.00 0.00 0.00 0.00 0.00 0.00 0.00
0.00 0.00 0.00 0.00 0.00 0.00 0.00 0.00 0.00 0.00 0.00 0.00 0.00 0.00 0.00 0.00 0.00 0.00 0.00 0.00 0.00 0.00 0.00 0.00 0.00 0.00 0.00 0.00 0.00 0.00 0.00 0.00 0.00 0.00 0.00 0.00 0.00 0.00 0.00 0.00 0.00 0.00 0.00
0.00 0.00 0.00 0.00 0.00 0.00 0.00 0.00 0.00 0.00 0.00 0.00 0.00 0.00 0.00 0.00 0.00 0.00 0.00 0.00 0.00 0.00 0.00 0.00 0.00 0.00 0.00 0.00 0.00 0.00 0.00 0.00 0.00 0.00 0.00 0.00 0.00 0.00 0.00 0.00 0.00 0.00 0.00
0.00 0.00 0.00 0.00 0.00 0.00 0.00 0.00 0.00 0.00 0.00 0.00 0.00 0.00 0.00 0.00 0.00 0.00 0.00 0.00 0.00 0.00 0.00 0.00 0.00 0.00 0.00 0.00 0.00 0.00 0.00 0.00 0.00 0.00 0.00 0.00 0.00 0.00 0.00 0.00 0.00 0.00 0.00
0.01 0.00 0.00 0.00 0.00 0.00 0.00 0.00 0.00 0.00 0.00 0.00 0.00 0.00 0.00 0.00 0.00 0.00 0.00 0.00 0.00 0.00 0.00 0.00 0.00 0.00 0.00 0.00 0.00 0.00 0.00 0.00 0.00 0.01 0.00 0.00 0.00 0.00 0.00 0.00 0.00 0.00 0.00
0.00 0.00 0.00 0.00 0.00 0.00 0.00 0.00 0.00 0.00 0.00 0.00 0.00 0.00 0.00 0.00 0.00 0.00 0.00 0.00 0.00 0.00 0.00 0.00 0.00 0.00 0.00 0.00 0.00 0.00 0.00 0.00 0.00 0.00 0.00 0.00 0.00 0.00 0.00 0.00 0.00 0.00 0.00
0.01 0.00 0.00 0.00 0.01 0.00 0.00 0.00 0.00 0.00 0.00 0.00 0.00 0.00 0.00 0.00 0.00 0.00 0.00 0.00 0.00 0.00 0.00 0.00 0.00 0.00 0.00 0.00 0.00 0.01 0.02 0.02 0.02 0.01 0.00 0.00 0.00 0.00 0.00 0.00 0.00 0.00 0.00
0.02 0.00 0.00 0.01 0.01 0.01 0.00 0.00 0.00 0.00 0.00 0.00 0.00 0.00 0.00 0.00 0.00 0.00 0.00 0.00 0.00 0.00 0.00 0.00 0.01 0.03 0.05 0.03 0.02 0.02 0.01 0.01 0.01 0.01 0.00 0.00 0.00 0.00 0.00 0.00 0.00 0.00 0.00
0.03 0.01 0.00 0.01 0.01 0.00 0.00 0.00 0.00 0.00 0.00 0.00 0.00 0.00 0.00 0.00 0.00 0.00 0.00 0.00 0.00 0.01 0.03 0.06 0.07 0.06 0.06 0.04 0.01 0.01 0.01 0.01 0.01 0.01 0.01 0.01 0.00 0.00 0.00 0.00 0.00 0.00 0.00
0.01 0.01 0.01 0.01 0.00 0.00 0.00 0.01 0.00 0.00 0.00 0.00 0.00 0.00 0.00 0.00 0.00 0.01 0.03 0.04 0.05 0.06 0.07 0.08 0.04 0.03 0.02 0.02 0.02 0.02 0.03 0.04 0.07 0.10 0.05 0.00 0.00 0.00 0.00 0.00 0.00 0.00 0.00
0.01 0.01 0.01 0.01 0.00 0.00 0.01 0.00 0.00 0.00 0.00 0.00 0.00 0.00 0.00 0.00 0.01 0.01 0.03 0.05 0.05 0.06 0.03 0.02 0.02 0.02 0.04 0.04 0.06 0.08 0.12 0.15 0.11 0.03 0.00 0.00 0.00 0.00 0.00 0.00 0.00 0.00 0.00
0.00 0.01 0.01 0.00 0.00 0.00 0.01 0.00 0.00 0.00 0.00 0.00 0.00 0.00 0.01 0.02 0.03 0.03 0.02 0.03 0.03 0.02 0.03 0.04 0.03 0.05 0.06 0.05 0.10 0.12 0.07 0.02 0.00 0.00 0.00 0.00 0.00 0.00 0.00 0.00 0.00 0.00 0.00
0.02 0.01 0.01 0.01 0.00 0.00 0.01 0.00 0.00 0.00 0.01 0.05 0.09 0.12 0.16 0.17 0.25 0.19 0.12 0.08 0.06 0.05 0.10 0.11 0.11 0.09 0.07 0.04 0.01 0.00 0.00 0.00 0.00 0.00 0.00 0.00 0.00 0.00 0.00 0.00 0.00 0.00 0.00
0.06 0.06 0.03 0.01 0.03 0.01 0.04 0.03 0.02 0.02 0.02 0.03 0.04 0.04 0.09 0.08 0.09 0.08 0.05 0.06 0.13 0.18 0.21 0.20 0.12 0.04 0.01 0.00 0.00 0.00 0.00 0.00 0.00 0.00 0.00 0.00 0.00 0.00 0.00 0.00 0.00 0.00 0.00
MSLP
1017.89 1018.63 1019.15 1019.59 1019.87 1020.27 1020.68 1021.24 1021.53 1021.70 1021.80 1021.97 1021.96 1022.16 1022.82 1023.11 1023.20 1023.42 1023.78 1023.87 1023.97 1024.09 1024.31 1024.51 1024.72 1024.79 1024.96 1025.04 1025.09 1025.16 1025.23 1025.27 1025.28 1025.22 1025.18 1025.12 1025.11 1024.97 1024.92 1024.83 1024.71 1024.55 1024.43
1017.54 1018.15 1019.03 1019.46 1019.73 1019.91 1020.44 1020.92 1021.35 1021.52 1021.73 1021.87 1022.04 1022.31 1022.73 1023.12 1023.38 1023.52 1023.73 1023.90 1024.08 1024.04 1024.16 1024.23 1024.43 1024.64 1024.79 1024.89 1024.94 1025.08 1025.14 1025.16 1025.12 1025.11 1025.09 1024.96 1024.82 1024.77 1024.69 1024.61 1024.50 1024.40 1024.28
1017.00 1017.95 1018.61 1019.18 1019.31 1019.68 1020.00 1020.52 1020.96 1021.12 1021.53 1021.85 1022.25 1022.32 1022.69 1023.08 1023.39 1023.49 1023.75 1023.95 1024.00 1024.07 1024.08 1024.15 1024.32 1024.39 1024.45 1024.55 1024.58 1024.60 1024.75 1024.81 1024.81 1024.78 1024.78 1024.65 1024.55 1024.47 1024.37 1024.31 1024.18 1024.01 1023.91
1016.34 1017.41 1018.29 1018.64 1018.80 1019.21 1019.65 1020.24 1020.72 1021.34 1021.51 1021.75 1022.29 1022.54 1022.59 1022.74 1023.28 1023.31 1023.61 1023.84 1024.04 1024.13 1024.05 1024.00 1024.07 1024.23 1024.32 1024.35 1024.29 1024.27 1024.27 1024.29 1024.34 1024.22 1024.21 1024.16 1024.09 1024.04 1023.87 1023.85 1023.68 1023.57 1023.45
1016.03 1016.72 1017.64 1018.09 1018.49 1019.12 1019.37 1020.12 1020.78 1021.16 1021.84 1022.07 1022.22 1022.55 1022.56 1022.76 1022.99 1023.00 1023.29 1023.61 1023.70 1023.90 1024.01 1023.99 1023.94 1024.07 1024.24 1024.21 1024.19 1024.11 1024.00 1024.02 1023.97 1023.98 1023.91 1023.89 1023.72 1023.58 1023.47 1023.37 1023.28 1023.08 1022.96
1015.74 1016.52 1017.14 1017.71 1018.32 1018.99 1019.63 1020.05 1020.60 1021.07 1021.67 1022.02 1022.46 1022.79 1022.90 1022.86 1022.98 1023.02 1022.88 1022.94 1023.28 1023.45 1023.65 1023.79 1023.87 1023.95 1023.89 1023.91 1023.82 1023.81 1023.66 1023.66 1023.67 1023.63 1023.50 1023.37 1023.35 1023.27 1023.02 1022.90 1022.77 1022.61 1022.40
1015.45 1015.88 1017.14 1017.74 1018.12 1018.84 1019.29 1019.98 1020.72 1021.23 1021.69 1021.98 1022.76 1023.08 1023.24 1023.09 1022.99 1023.06 1022.86 1022.84 1022.97 1022.98 1023.18 1023.39 1023.52 1023.69 1023.69 1023.60 1023.49 1023.55 1023.48 1023.26 1023.21 1023.15 1023.14 1023.00 1022.78 1022.76 1022.63 1022.50 1022.30 1022.09 1021.89
1015.16 1015.81 1016.56 1017.62 1017.92 1018.62 1019.36 1019.75 1020.29 1021.31 1021.58 1021.88 1022.69 1023.34 1023.54 1023.38 1023.17 1022.85 1022.71 1022.66 1022.71 1022.83 1022.88 1023.02 1023.12 1023.21 1023.34 1023.39 1023.37 1023.15 1023.11 1023.01 1022.80 1022.72 1022.61 1022.63 1022.44 1022.33 1022.21 1021.97 1021.75 1021.54 1021.29
1014.78 1015.29 1016.26 1017.08 1017.70 1018.16 1018.79 1019.51 1019.93 1020.55 1021.40 1021.78 1021.86 1022.58 1023.47 1023.22 1023.16 1022.90 1022.83 1022.68 1022.60 1022.86 1022.69 1022.68 1022.72 1022.79 1022.88 1022.88 1022.82 1022.85 1022.77 1022.68 1022.64 1022.41 1022.27 1022.12 1022.05 1021.85 1021.68 1021.41 1021.14 1020.91 1020.66
1014.41 1015.14 1015.85 1016.66 1017.24 1017.65 1018.16 1018.92 1019.60 1020.14 1020.92 1021.59 1021.90 1022.09 1022.39 1022.53 1023.00 1023.35 1022.98 1022.72 1022.60 1022.54 1022.44 1022.53 1022.35 1022.35 1022.32 1022.34 1022.31 1022.34 1022.20 1022.26 1022.23 1022.09 1021.98 1021.85 1021.69 1021.56 1021.24 1020.94 1020.67 1020.43 1020.19
1013.90 1014.72 1015.39 1016.21 1017.01 1017.54 1017.90 1018.39 1019.27 1019.78 1020.27 1021.09 1021.35 1021.84 1022.17 1022.48 1022.65 1023.09 1023.29 1023.04 1022.74 1022.29 1022.03 1022.20 1022.01 1021.96 1021.85 1021.84 1021.87 1021.92 1021.84 1021.79 1021.82 1021.77 1021.72 1021.59 1021.34 1021.14 1020.91 1020.66 1020.40 1020.21 1019.95
1013.88 1014.51 1015.00 1015.84 1016.40 1016.99 1017.43 1017.77 1018.63 1019.26 1019.88 1020.31 1020.72 1021.24 1021.35 1022.02 1022.38 1022.76 1023.16 1023.02 1022.88 1022.22 1021.66 1021.54 1021.57 1021.49 1021.35 1021.32 1021.24 1021.26 1021.41 1021.45 1021.49 1021.45 1021.31 1021.20 1020.91 1020.98 1021.13 1021.04 1020.67 1020.37 1020.02
1013.39 1014.02 1014.59 1015.34 1016.00 1016.33 1016.90 1017.27 1018.08 1018.68 1019.36 1019.83 1020.26 1020.71 1020.82 1021.09 1021.31 1021.91 1022.37 1022.75 1022.69 1022.23 1021.73 1021.29 1020.95 1020.96 1020.84 1020.90 1020.87 1020.82 1020.88 1021.10 1021.17 1021.10 1020.97 1020.92 1020.89 1020.97 1021.03 1020.89 1020.63 1020.40 1020.05
1012.60 1013.52 1014.17 1014.90 1015.31 1015.84 1016.28 1016.88 1017.64 1018.19 1018.73 1019.27 1019.73 1020.10 1020.43 1020.64 1020.77 1021.23 1021.66 1022.32 1022.68 1022.39 1021.88 1021.32 1020.78 1020.55 1020.45 1020.44 1020.43 1020.55 1020.63 1020.77 1020.86 1020.71 1020.78 1020.70 1020.87 1020.96 1020.83 1020.57 1020.49 1020.27 1020.09
1012.28 1013.12 1013.88 1014.47 1015.03 1015.52 1015.88 1016.61 1017.20 1017.72 1018.08 1018.67 1019.20 1019.57 1019.94 1020.20 1020.33 1020.66 1020.86 1021.34 1021.75 1022.37 1021.84 1021.05 1020.94 1020.23 1020.26 1020.23 1020.20 1020.50 1020.58 1020.54 1020.67 1020.65 1020.73 1020.85 1020.94 1020.89 1020.72 1020.54 1020.42 1020.38 1020.09
1011.74 1012.53 1013.32 1014.05 1014.65 1015.14 1015.69 1016.09 1016.71 1017.25 1017.67 1018.19 1018.55 1019.08 1019.45 1019.74 1019.88 1020.27 1020.44 1020.83 1021.18 1021.58 1021.60 1020.86 1020.60 1020.31 1020.09 1019.98 1020.05 1020.24 1020.24 1020.34 1020.51 1020.62 1020.69 1020.77 1020.82 1020.81 1020.73 1020.55 1020.53 1020.12 1019.95
1011.08 1011.80 1012.48 1013.42 1014.09 1014.69 1015.07 1015.46 1016.07 1016.40 1016.91 1017.55 1018.05 1018.28 1018.82 1019.12 1019.38 1019.68 1019.80 1020.17 1020.63 1020.94 1021.16 1020.30 1020.16 1019.91 1019.91 1019.97 1019.84 1019.74 1019.77 1020.10 1020.59 1020.75 1020.79 1020.80 1020.81 1020.78 1020.69 1020.35 1020.14 1020.15 1020.06
1010.18 1010.98 1011.94 1012.77 1013.28 1013.73 1014.12 1014.52 1015.11 1015.68 1016.20 1016.50 1016.91 1017.62 1017.88 1018.49 1018.77 1019.04 1019.32 1019.54 1019.68 1020.09 1020.40 1020.20 1019.82 1019.72 1019.62 1019.46 1019.38 1019.37 1019.67 1020.18 1020.61 1020.72 1020.81 1020.92 1020.97 1020.84 1020.65 1020.48 1020.50 1020.50 1020.13
1009.56 1010.40 1011.18 1011.86 1012.37 1012.88 1013.42 1013.87 1014.44 1014.88 1015.24 1015.68 1015.96 1016.36 1016.77 1017.44 1017.83 1018.10 1018.60 1018.94 1019.10 1019.43 1019.67 1019.84 1019.37 1018.95 1019.10 1019.35 1019.53 1019.68 1020.20 1020.60 1020.67 1021.04 1020.76 1020.91 1020.85 1020.66 1020.52 1020.49 1020.64 1020.51 1020.14
1008.79 1009.54 1010.14 1010.80 1011.47 1012.07 1012.65 1013.13 1013.60 1014.14 1014.64 1014.80 1014.99 1015.38 1015.88 1016.45 1016.73 1017.12 1017.76 1017.93 1018.29 1018.69 1019.07 1019.15 1018.91 1018.60 1018.85 1019.35 1019.68 1020.17 1020.76 1021.27 1021.23 1021.43 1021.88 1021.56 1021.04 1020.98 1020.70 1020.71 1020.49 1020.60 1020.33
1008.30 1008.93 1009.63 1010.22 1010.85 1011.39 1011.87 1012.42 1012.87 1013.46 1013.73 1014.01 1014.25 1014.62 1014.97 1015.40 1015.90 1016.15 1016.95 1017.20 1017.44 1017.77 1018.02 1018.05 1018.38 1018.80 1019.15 1019.60 1020.07 1020.48 1020.77 1021.40 1021.53 1021.74 1021.66 1022.03 1021.16 1021.40 1021.34 1021.27 1021.00 1020.62 1020.27
1007.69 1008.36 1008.86 1009.55 1010.15 1010.64 1011.04 1011.56 1012.12 1012.66 1012.96 1013.41 1013.63 1014.07 1014.76 1015.16 1015.52 1015.80 1016.13 1016.40 1016.65 1017.05 1017.36 1017.66 1018.42 1018.93 1019.62 1020.04 1020.53 1020.68 1021.07 1021.23 1021.44 1021.81 1021.43 1021.53 1021.40 1021.36 1021.42 1021.10 1021.03 1020.43 1020.08
1006.86 1007.54 1008.11 1008.74 1009.24 1009.69 1010.30 1010.71 1011.32 1011.93 1012.31 1012.70 1013.06 1013.89 1014.72 1015.20 1015.51 1016.15 1016.72 1016.90 1017.41 1017.60 1017.73 1018.10 1018.88 1019.52 1020.18 1020.72 1020.83 1021.28 1021.52 1021.68 1021.82 1021.83 1022.15 1021.84 1021.58 1021.03 1021.12 1020.98 1020.68 1020.35 1020.37
1006.13 1006.74 1007.39 1007.94 1008.40 1008.80 1009.35 1009.87 1010.44 1011.23 1011.86 1012.29 1012.72 1013.32 1014.02 1014.94 1015.64 1016.11 1016.43 1016.90 1017.81 1018.44 1018.80 1019.00 1019.64 1020.21 1021.35 1021.66 1021.43 1021.54 1021.83 1021.86 1022.08 1022.42 1022.36 1022.44 1022.04 1021.80 1021.04 1021.04 1020.69 1020.53 1020.18
1005.77 1006.27 1006.67 1007.30 1007.83 1008.26 1008.72 1009.28 1010.16 1011.19 1012.24 1012.87 1013.18 1013.56 1014.12 1014.82 1015.67 1016.05 1016.89 1017.35 1018.07 1019.23 1019.65 1020.49 1019.42 1021.14 1020.68 1021.55 1021.23 1021.61 1022.05 1022.34 1022.95 1023.00 1023.17 1023.11 1023.04 1022.66 1021.96 1021.28 1021.02 1020.70 1020.43
1005.37 1005.87 1006.55 1007.06 1007.58 1008.35 1008.75 1009.24 1010.01 1010.92 1012.12 1013.05 1014.01 1014.61 1015.02 1015.52 1016.29 1016.78 1017.41 1017.93 1018.33 1019.12 1019.40 1020.25 1020.77 1021.67 1021.52 1022.22 1022.61 1022.28 1022.24 1022.97 1023.64 1023.60 1023.61 1023.34 1023.47 1023.50 1022.85 1021.88 1021.46 1021.19 1020.95
Thickness
5680 5675 5673 5673 5673 5671 5670 5667 5667 5667 5668 5667 5669 5669 5663 5662 5662 5660 5656 5653 5651 5649 5646 5643 5639 5638 5635 5633 5631 5628 5626 5624 5621 5620 5618 5616 5613 5611 5608 5606 5604 5602 5601
5678 5676 5670 5670 5670 5671 5669 5666 5664 5666 5665 5665 5665 5664 5661 5658 5657 5657 5654 5651 5648 5648 5645 5643 5640 5636 5634 5631 5629 5626 5623 5621 5619 5617 5614 5613 5611 5608 5605 5603 5601 5599 5598
5677 5672 5670 5667 5669 5668 5669 5666 5664 5664 5664 5662 5660 5660 5659 5655 5652 5653 5650 5648 5646 5644 5643 5641 5637 5636 5634 5631 5628 5626 5622 5620 5618 5616 5613 5611 5609 5607 5604 5601 5599 5598 5597
5677 5672 5667 5665 5668 5667 5665 5664 5662 5659 5661 5661 5657 5655 5656 5654 5649 5649 5647 5644 5642 5640 5639 5638 5636 5632 5630 5628 5626 5624 5622 5620 5618 5617 5614 5611 5609 5606 5604 5601 5599 5598 5597
5671 5672 5668 5665 5666 5663 5664 5661 5657 5656 5652 5652 5653 5651 5651 5649 5647 5648 5646 5642 5642 5639 5636 5635 5633 5630 5627 5625 5623 5622 5621 5618 5617 5615 5612 5610 5608 5607 5605 5602 5600 5599 5597
5668 5665 5666 5663 5664 5661 5657 5656 5653 5652 5648 5648 5646 5643 5643 5644 5643 5643 5645 5643 5639 5637 5634 5632 5631 5628 5626 5624 5622 5620 5619 5617 5615 5613 5612 5611 5608 5605 5605 5603 5601 5600 5599
5664 5665 5660 5659 5658 5656 5655 5651 5647 5645 5644 5643 5637 5635 5634 5636 5638 5637 5639 5639 5638 5637 5634 5631 5628 5626 5624 5622 5621 5618 5616 5616 5614 5613 5610 5609 5609 5606 5605 5603 5601 5599 5598
5659 5659 5658 5653 5654 5651 5648 5648 5646 5639 5639 5637 5630 5625 5625 5628 5629 5633 5634 5634 5634 5632 5631 5629 5627 5625 5622 5620 5618 5617 5615 5613 5612 5611 5610 5607 5607 5605 5603 5602 5601 5599 5598
5657 5656 5652 5649 5648 5648 5647 5643 5643 5639 5632 5631 5631 5626 5617 5620 5620 5626 5627 5628 5629 5626 5627 5626 5624 5622 5620 5618 5617 5614 5612 5610 5608 5607 5607 5606 5604 5604 5602 5601 5599 5597 5596
5652 5649 5647 5643 5643 5645 5644 5640 5637 5634 5630 5626 5626 5624 5622 5621 5617 5617 5620 5621 5621 5622 5623 5621 5621 5619 5618 5616 5615 5613 5611 5608 5606 5604 5603 5601 5600 5597 5597 5596 5595 5594 5593
5649 5647 5644 5640 5637 5637 5637 5636 5631 5629 5628 5623 5622 5619 5617 5614 5614 5611 5609 5612 5614 5616 5619 5616 5617 5616 5614 5613 5612 5609 5608 5605 5602 5600 5598 5595 5594 5591 5590 5590 5588 5586 5586
5641 5639 5640 5636 5634 5633 5633 5632 5628 5626 5623 5621 5620 5617 5617 5612 5609 5606 5602 5602 5604 5611 5615 5615 5614 5613 5612 5610 5609 5606 5603 5600 5597 5595 5593 5590 5589 5584 5579 5577 5577 5576 5577
5638 5637 5636 5633 5630 5630 5628 5628 5625 5623 5620 5618 5616 5613 5613 5612 5611 5607 5604 5599 5601 5604 5607 5610 5610 5609 5608 5606 5604 5601 5597 5593 5590 5588 5586 5583 5580 5577 5573 5571 5569 5568 5568
5636 5633 5632 5629 5628 5628 5627 5624 5622 5619 5617 5614 5612 5609 5607 5607 5607 5604 5601 5596 5593 5594 5598 5601 5604 5604 5603 5601 5598 5594 5590 5586 5583 5582 5578 5576 5572 5569 5567 5565 5561 5559 5557
5631 5629 5627 5626 5625 5623 5623 5619 5618 5615 5614 5610 5607 5606 5603 5601 5601 5600 5599 5595 5591 5587 5589 5595 5592 5596 5594 5593 5590 5584 5582 5578 5574 5572 5568 5566 5563 5559 5556 5555 5553 5549 5547
5629 5625 5623 5621 5619 5619 5616 5616 5614 5612 5610 5606 5604 5600 5598 5597 5597 5595 5594 5591 5588 5585 5583 5587 5585 5585 5584 5583 5580 5576 5574 5570 5567 5564 5560 5556 5552 5548 5546 5544 5540 5539 5535
5625 5623 5621 5617 5615 5613 5614 5614 5610 5610 5607 5603 5599 5599 5595 5594 5593 5591 5591 5588 5583 5580 5578 5584 5580 5580 5578 5574 5571 5569 5567 5561 5556 5551 5547 5543 5540 5536 5534 5534 5531 5525 5521
5625 5622 5616 5614 5613 5613 5613 5613 5610 5608 5604 5603 5600 5595 5595 5591 5589 5586 5585 5583 5582 5576 5573 5575 5576 5573 5572 5571 5568 5565 5560 5553 5545 5541 5536 5532 5528 5525 5522 5520 5516 5512 5509
5622 5618 5616 5613 5612 5612 5610 5610 5607 5606 5604 5601 5600 5598 5596 5590 5588 5584 5580 5577 5576 5572 5569 5567 5572 5572 5567 5563 5558 5554 5547 5541 5536 5529 5528 5522 5518 5515 5511 5507 5501 5498 5495
5619 5617 5616 5614 5611 5610 5609 5608 5606 5603 5600 5601 5600 5597 5594 5590 5588 5585 5579 5577 5574 5570 5566 5565 5567 5568 5562 5555 5548 5541 5533 5524 5521 5515 5507 5503 5503 5498 5495 5493 5490 5483 5479
5614 5613 5611 5611 5609 5607 5607 5604 5603 5599 5599 5599 5598 5596 5594 5591 5586 5586 5579 5575 5573 5571 5568 5568 5564 5554 5549 5541 5535 5527 5521 5512 5507 5501 5494 5487 5490 5483 5478 5475 5471 5468 5464
5608 5608 5609 5607 5605 5604 5603 5601 5600 5597 5597 5594 5594 5591 5584 5581 5579 5578 5574 5571 5570 5566 5561 5557 5548 5542 5532 5525 5516 5513 5507 5500 5495 5489 5488 5478 5476 5470 5462 5460 5453 5452 5448
5605 5604 5604 5603 5604 5603 5598 5598 5596 5594 5593 5591 5589 5583 5577 5573 5571 5566 5561 5557 5552 5548 5546 5541 5532 5524 5514 5506 5502 5496 5490 5484 5480 5477 5470 5464 5461 5459 5451 5444 5437 5433 5427
5602 5602 5601 5600 5601 5601 5597 5596 5593 5591 5586 5584 5582 5578 5572 5564 5559 5554 5551 5545 5536 5529 5525 5522 5512 5503 5490 5484 5482 5479 5473 5469 5465 5459 5454 5446 5445 5439 5435 5427 5422 5415 5410
5596 5597 5597 5596 5596 5595 5591 5590 5585 5579 5571 5567 5565 5562 5559 5550 5545 5538 5529 5521 5522 5510 5504 5494 5500 5481 5482 5470 5469 5465 5459 5450 5440 5438 5433 5429 5424 5420 5414 5410 5400 5395 5390
5587 5586 5584 5584 5583 5580 5581 5580 5576 5569 5559 5553 5547 5542 5540 5537 5529 5523 5517 5512 5506 5497 5492 5482 5476 5460 5461 5452 5447 5448 5444 5433 5421 5415 5412 5407 5402 5396 5394 5393 5383 5377 5371